Regional Weather Roundup
Issued by NWS

Home | Current Version | Previous Version | Text Only | Print | Product List | Glossary On
Versions: 1 2 3 4 5 6 7 8 9 10 11 12 13 14 15 16 17 18 19 20 21 22 23 24 25 26 27 28 29 30 31 32 33 34 35 36 37 38 39 40 41 42 43 44 45 46 47 48 49 50
521
ASUS43 KOAX 200610
RWRNE

WEATHER ROUNDUP FOR NEBRASKA
NATIONAL WEATHER SERVICE OMAHA NE
1200 AM CST MON NOV 20 2017

NOTES: SATELLITE DATA IS BEING USED TO AUGMENT CLOUD COVER ABOVE
       12000 FEET.
       "FAIR" INDICATES FEW OR NO CLOUDS BELOW 12,000 FEET WITH NO
       SIGNIFICANT WEATHER AND/OR OBSTRUCTIONS TO VISIBILITY.


NEZ001>004-019>022-054>056-200700-
NEBRASKA PANHANDLE

CITY           SKY/WX    TMP DP  RH WIND       PRES   REMARKS
SCOTTSBLUFF    CLOUDY    43  10  26 W17       29.85F
6HR MIN TEMP:  37; 6HR MAX TEMP:  45;

ALLIANCE       CLOUDY    27  12  53 W3        29.81F
6HR MIN TEMP:  21; 6HR MAX TEMP:  44;

CHADRON        CLOUDY    25  15  66 W8        29.78F WCI  16
6HR MIN TEMP:  23; 6HR MAX TEMP:  46;

GORDON         FAIR      37  14  39 W10       29.76F WCI  30
6HR MIN TEMP:  29; 6HR MAX TEMP:  43;

KIMBALL        CLOUDY    29  12  49 SW10      29.88F WCI  19
SIDNEY         CLOUDY    36   9  32 W13       29.88F WCI  27
6HR MIN TEMP:  25; 6HR MAX TEMP:  37;

$$

NEZ057>060-069>072-079>082-200700-
SOUTHWEST NEBRASKA

CITY           SKY/WX    TMP DP  RH WIND       PRES   REMARKS
NORTH PLATTE   CLOUDY    28  22  78 NW7       29.85F WCI  21
6HR MIN TEMP:  25; 6HR MAX TEMP:  48;

IMPERIAL       CLOUDY    37  19  48 W10       29.86F WCI  30
6HR MIN TEMP:  36; 6HR MAX TEMP:  44;

LEXINGTON      CLOUDY    43  25  48 W6        29.84F
MCCOOK         CLEAR     34  22  61 NW7       29.87F WCI  28
6HR MIN TEMP:  34; 6HR MAX TEMP:  51;

OGALLALA       CLOUDY    26  21  81 CALM      29.85F
$$

NEZ005>010-023>029-035>040-094-200700-
NORTH CENTRAL NEBRASKA

CITY           SKY/WX    TMP DP  RH WIND       PRES   REMARKS
VALENTINE      CLOUDY    36  20  52 SW10      29.74F WCI  28
6HR MIN TEMP:  35; 6HR MAX TEMP:  42;

AINSWORTH      CLOUDY    37  21  52 SW13      29.75F WCI  29
BROKEN BOW     CLEAR     36  23  59 W3        29.81F
6HR MIN TEMP:  28; 6HR MAX TEMP:  43;

O`NEILL        PTCLDY    34  27  75 S6        29.77F WCI  29
ORD            CLOUDY    36  25  64 SW10      29.80F WCI  28
6HR MIN TEMP:  29; 6HR MAX TEMP:  39;

THEDFORD       CLOUDY    42  20  41 SW8       29.80F
$$

NEZ041-046>049-061>064-073>077-083>087-200700-
SOUTH CENTRAL NEBRASKA

CITY           SKY/WX    TMP DP  RH WIND       PRES   REMARKS
GRAND ISLAND   CLEAR     40  27  59 SW10      29.85F WCI  33
6HR MIN TEMP:  40; 6HR MAX TEMP:  47;

AURORA         CLEAR     36  24  61 SW12      29.85F WCI  28
HASTINGS       CLEAR     39  23  52 S9        29.86F WCI  33
6HR MIN TEMP:  37; 6HR MAX TEMP:  50;

HEBRON         CLEAR     42  24  48 SW12      29.90F
HOLDREGE       CLEAR     37  26  64 SW10      29.86F WCI  30
KEARNEY        CLEAR     35  25  66 SW10      29.86F WCI  27
YORK           CLEAR     36  25  64 S5        29.86F WCI  32
$$

NEZ011>018-030>034-042>045-200700-
NORTHEAST NEBRASKA

CITY           SKY/WX    TMP DP  RH WIND       PRES   REMARKS
NORFOLK        CLOUDY    35  25  66 SW7       29.81F WCI  29
6HR MIN TEMP:  35; 6HR MAX TEMP:  46;

ALBION         CLOUDY    36  25  65 S5        29.82F WCI  32
BLAIR          CLOUDY    38  26  62 S9        29.87F WCI  31
COLUMBUS       CLOUDY    28  23  81 CALM      29.86F
FREMONT        CLOUDY    41  25  51 S3        29.87F
TEKAMAH        CLOUDY    31  23  72 S8        29.86F WCI  23
6HR MIN TEMP:  31; 6HR MAX TEMP:  38;

WAYNE          CLOUDY    38  24  57 SW8       29.81F WCI  32
$$

NEZ050>053-065>068-078-088>093-200700-
SOUTHEAST NEBRASKA

CITY           SKY/WX    TMP DP  RH WIND       PRES   REMARKS
LINCOLN        CLEAR     37  24  59 S6        29.90F WCI  32
6HR MIN TEMP:  34; 6HR MAX TEMP:  48;

OMAHA EPPLEY   CLOUDY    35  25  66 SE9       29.90F WCI  28
6HR MIN TEMP:  35; 6HR MAX TEMP:  45;

BEATRICE       CLEAR     44  25  47 S9        29.91F
FALLS CITY     CLOUDY    42  25  50 S14       29.95F
6HR MIN TEMP:  41; 6HR MAX TEMP:  47;

NEBRASKA CITY  CLOUDY    39  27  63 SW13      29.92F WCI  31
PLATTSMOUTH    CLOUDY    39  27  61 S12       29.89F WCI  32
$$

NEZ044-045-051>053-067-200700-
OMAHA AREA

CITY           SKY/WX    TMP DP  RH WIND       PRES   REMARKS
OMAHA EPPLEY   CLOUDY    35  25  66 SE9       29.90F WCI  28
6HR MIN TEMP:  35; 6HR MAX TEMP:  45;

BLAIR          CLOUDY    38  26  62 S9        29.87F WCI  31
FREMONT        CLOUDY    41  25  51 S3        29.87F
MILLARD        CLOUDY    39  27  60 CALM      29.89F
OFFUTT AFB     CLOUDY    30  25  80 E5        29.89F WCI  25
PLATTSMOUTH    CLOUDY    39  27  61 S12       29.89F WCI  32
WAHOO          FAIR      37  24  58 S5        29.87F WCI  34
$$




USA.gov is the U.S. government's official web portal to all federal, state and local government web resources and services.